Location: Melbourne
(37.8170°S, 144.9670°E)
Time: 11:07:24
(UTC+10:00)

ERBS - Visible Passes

Search period start: 27 July 2016 00:00
Search period end: 06 August 2016 00:00
Orbit: 435 x 450 km, 57.0° (Epoch: 26 July)

Date Brightness Start Highest point End Pass type
(mag) Time Alt. Az. Time Alt. Az. Time Alt. Az.
29 Jul 4.6 06:35:54 10° SSW 06:38:42 21° SE 06:41:30 10° E visible
30 Jul 5.0 05:56:43 10° S 05:58:55 15° SSE 06:01:07 10° ESE visible
31 Jul 5.2 05:18:20 11° SSE 05:19:05 11° SSE 05:20:17 10° SE visible
01 Aug 3.2 06:13:47 13° SSW 06:16:49 48° SE 06:20:17 10° ENE visible
02 Aug 4.0 05:35:51 24° S 05:37:07 31° SE 05:40:20 10° ENE visible
03 Aug 4.8 04:58:00 21° SE 04:58:00 21° SE 05:00:12 10° E visible
03 Aug 3.2 06:31:29 13° WSW 06:34:15 34° NW 06:37:30 10° NNE visible
04 Aug 2.5 05:53:45 41° WSW 05:54:41 57° NW 05:58:10 10° NNE visible
05 Aug 3.4 05:16:06 43° NE 05:16:06 43° NE 05:18:37 10° NE visible
